Location: Ahausen
(50.4985°N, 8.2722°E)
Time: 10:26:41
(UTC+00:00)

Cosmos 1943 - Pass Details

Date: 18 September 2020
Orbit: 833 x 850 km, 71.0° (Epoch: 25 October)

Event Time Altitude Azimuth Distance (km) Brightness Sun altitude
Rises 18:00:43 0° 330° (NNW) 3,400 7.0 -5.2°
Reaches altitude 10° 18:03:09 10° 331° (NNW) 2,464 6.2 -5.6°
Maximum altitude 18:08:50 88° 59° (ENE) 849 3.3 -6.5°
Drops below altitude 10° 18:14:30 10° 152° (SSE) 2,461 5.3 -7.3°
Sets 18:16:56 0° 152° (SSE) 3,394 6.0 -7.7°
